EW1160 Weather Reports


Display with metric or nautical units.
time (UTC)temp
F
wind
direction
speed
MPH
gust
MPH
rain 1hr
in
rain 24hr
in
rain mn
in
humidity
%
barometer
mb
20260504081531 49 193 0.0 0.0 0.00 0.00 0.00 78 1002.4
20260504044556 51 185 0.0 0.0 0.00 0.00 0.00 70 1004.9
20260504043054 52 192 0.0 0.0 0.00 0.00 0.00 68 1005.1
20260504041533 52 158 0.0 0.0 0.00 0.00 0.00 67 1005.1
20260504040031 53 191 0.0 0.0 0.00 0.00 0.00 66 1005.3
20260504034518 53 179 0.0 0.0 0.00 0.00 0.00 65 1005.5
20260504033011 54 199 0.0 0.0 0.00 0.00 0.00 63 1005.5
20260504031605 54 174 0.0 0.0 0.00 0.00 0.00 62 1005.6
20260504030112 55 187 0.0 0.0 0.00 0.00 0.00 60 1005.7
20260504024542 55 170 0.0 0.0 0.00 0.00 0.00 58 1005.9
20260504023036 56 207 0.0 0.0 0.00 0.00 0.00 55 1006.0
20260504021519 57 212 0.0 0.0 0.00 0.00 0.00 54 1006.0
20260504020019 58 202 0.0 0.0 0.00 0.00 0.00 52 1006.0
20260504014559 58 212 0.0 0.0 0.00 0.00 0.00 51 1005.8
20260504013059 58 222 0.0 0.0 0.00 0.00 0.00 51 1005.7
20260504011542 57 181 0.0 0.0 0.00 0.00 0.00 52 1005.7
20260504010043 58 176 0.0 0.0 0.00 0.00 0.00 51 1005.5
20260504004531 59 184 0.0 0.0 0.00 0.00 0.00 49 1005.3
20260504003039 59 215 0.0 0.0 0.00 0.00 0.00 48 1005.1
20260504001530 59 207 0.0 0.0 0.00 0.00 0.00 46 1005.0
20260504000029 60 212 0.0 0.0 0.00 0.00 0.00 45 1005.0
20260503234529 60 204 0.0 0.0 0.00 0.00 0.00 45 1004.9
20260503233035 60 188 0.0 0.0 0.00 0.00 0.00 45 1005.1
20260503231527 60 201 0.0 0.0 0.00 0.00 0.00 45 1005.1
20260503230026 61 212 0.0 0.0 0.00 0.00 0.00 44 1005.3
20260503224529 61 220 0.0 0.0 0.00 0.00 0.00 43 1005.5
20260503223006 61 229 0.0 0.0 0.00 0.00 0.00 43 1005.5
20260503221507 61 210 0.0 0.0 0.00 0.00 0.00 42 1005.6
20260503220048 61 222 0.0 0.0 0.00 0.00 0.00 43 1005.7
20260503214546 61 203 0.0 0.0 0.00 0.00 0.00 43 1005.7
20260503213027 59 212 0.0 0.0 0.00 0.00 0.00 48 1005.8
20260503211527 60 207 0.0 0.0 0.00 0.00 0.00 47 1005.8
20260503210016 61 227 0.0 0.0 0.00 0.00 0.00 44 1005.9
20260503204515 60 236 0.0 0.0 0.00 0.00 0.00 44 1005.9
20260503203014 61 183 0.0 0.0 0.00 0.00 0.00 45 1006.0
20260503201513 62 224 0.0 0.0 0.00 0.00 0.00 42 1006.0
20260503200008 60 191 0.0 0.0 0.00 0.00 0.00 45 1006.4
20260503194505 58 223 0.0 0.0 0.00 0.00 0.00 53 1006.6
20260503193002 57 269 0.0 0.0 0.00 0.00 0.00 52 1006.9
20260503191501 57 240 0.0 0.0 0.00 0.00 0.00 53 1007.3
20260503190042 57 207 0.0 0.0 0.00 0.00 0.00 53 1007.5
20260503184601 58 220 0.0 0.0 0.00 0.00 0.00 50 1007.5
20260503183024 58 214 0.0 0.0 0.00 0.00 0.00 52 1007.6
20260503181520 57 222 0.0 0.0 0.00 0.00 0.00 54 1007.8
20260503180003 56 233 0.0 0.0 0.00 0.00 0.00 58 1007.9
20260503174504 57 220 0.0 0.0 0.00 0.00 0.00 49 1008.1
20260503173044 57 206 0.0 0.0 0.00 0.00 0.00 52 1008.2
20260503171604 55 233 0.0 0.0 0.00 0.00 0.00 59 1008.5